Flag for Gambia Weather past 2 weeks in Serekunda, Gambia

Now
84 °F

Sunny.


Feels Like: 87 °F
Forecast: 68 / 81 °F
Wind: 17 mph from West

Location: Banjul / Yundum

Current Time: Apr 27, 2015 at 1:12:55 PM

Latest Report: Apr 27, 2015 at 12:00 PM


Visibility: 10 mi

Pressure: 29.86 "Hg

Humidity: 55%

Dew point: 66 °F

Location of SerekundaLocation

Historic Weather in Serekunda — Graph

°F

Serekunda temperature yesterday

Maximum temperature yesterday: 86 °F (at 2:00 PM)
Minimum temperature yesterday: 68 °F (at 6:00 AM)
Average temperature yesterday: 75 °F

Past Weeks' High & Low Weather Summary

 TemperatureHumidityPressure
High97 °F (Apr 12, 3:00 PM)100% (Apr 25, 7:00 AM)29.95 "Hg (Apr 25, 7:00 AM)
Low66 °F (Apr 13, 6:00 AM)25% (Apr 13, 2:00 PM)29.74 "Hg (Apr 12, 5:00 PM)
Average74 °F73%29.84 "Hg
* Reported Apr 12 12:00 Noon — Apr 27 12:00 Noon, Serekunda, Weather by CustomWeather, © 2015

Note: Actual official high and low records may vary slightly from our data, if they occured in-between our weather recording intervals... More about our weather records

Advertising

Serekunda weather history for previous 24 hours

 ConditionsComfort  
Time TempWeatherWind HumidityBarometerVisibility
12:00 PM
Mon, Apr 27
84 °FSunny.17 mph55%29.86 "Hg10 mi
11:00 AM82 °FSunny.13 mph55%29.89 "Hg10 mi
10:00 AM79 °FSunny.12 mph65%29.92 "Hg10 mi
9:00 AM73 °FSunny.12 mph78%29.89 "Hg10 mi
8:00 AM68 °FSunny.7 mph88%29.89 "Hg10 mi
7:00 AM66 °FSunny.No wind94%29.89 "Hg10 mi
6:00 AM68 °FClear.No wind88%29.86 "Hg10 mi
5:00 AMN/APassing clouds.6 mphN/A29.86 "HgN/A
4:00 AM70 °FPassing clouds.3 mph83%29.86 "HgN/A
3:00 AM70 °FPassing clouds.10 mph88%29.86 "HgN/A
2:00 AM70 °FPassing clouds.3 mph88%29.86 "HgN/A
1:00 AM70 °FPassing clouds.6 mph88%29.86 "HgN/A
12:00 AM70 °FMild.N/A88%29.86 "HgN/A
11:00 PM
Sun, Apr 26
70 °FClear.2 mph88%29.86 "Hg10 mi
10:00 PM70 °FClear.6 mph88%29.86 "Hg10 mi
9:00 PM72 °FClear.N/A78%29.86 "Hg10 mi
8:00 PM72 °FClear.8 mph78%29.83 "Hg10 mi
7:00 PM75 °FSunny.6 mph74%29.83 "Hg10 mi
6:00 PM79 °FSunny.14 mph61%29.80 "Hg10 mi
5:00 PM82 °FSunny.16 mph55%29.80 "Hg10 mi
4:00 PM84 °FSunny.14 mph51%29.83 "Hg10 mi
3:00 PM86 °FSunny.16 mph49%29.86 "Hg10 mi
2:00 PM86 °FSunny.16 mph46%29.86 "Hg10 mi
1:00 PM84 °FSunny.12 mph58%29.89 "Hg10 mi
Weather by CustomWeather, © 2015

See weather overviewHow to use our weather pages